This demonstration page uses our WeatherBlox Daily Observations layout. Learn more.

38.89511, -77.03637

Hourly Observations for June 5, 2015

Temp ( °F °C ) Dew Point ( °F °C ) Humidity (%) Winds ( mph kmh ) Pressure ( in mb ) Visibility ( mi km ) Precip ( " mm )
12:52 am 00:52 Cloudy 62 16.7 58 14.4 86 86 NE 7 11 30.14 1021 10 16.0934 0 0.0254
1:52 am 01:52 Cloudy 61 16.1 57 13.9 87 87 ENE 12 19 30.12 1020 10 16.0934 0 0
2:52 am 02:52 Cloudy 60 15.6 57 13.9 90 90 NE 9 15 30.11 1020 9 14.48406 0 0.0254
3:52 am 03:52 Cloudy with Light Rain 60 15.6 57 13.9 90 90 N 8 13 30.11 1020 4 6.43736 0 0.0254
4:52 am 04:52 Cloudy with Light Rain 60 15.6 56 13.3 86 86 NNE 8 13 30.1 1019 9 14.48406 0.03 0.762
5:31 am 05:31 Cloudy with Light Rain 61 16 55 13 83 83 NNE 7 11 30.09 1019 8 12.87472 0 0.0254
5:52 am 05:52 Cloudy 60 15.6 56 13.3 86 86 NNE 9 15 30.1 1019 10 16.0934 0 0.0254
6:12 am 06:12 Cloudy with Light Rain 61 16 55 13 83 83 N 8 13 30.09 1019 6 9.65604 0 0
6:40 am 06:40 Cloudy 61 16 55 13 83 83 N 10 17 30.12 1020 10 16.0934 0 0
6:52 am 06:52 Cloudy with Mist and Fog 60 15.6 56 13.3 86 86 NNE 8 13 30.11 1020 6 9.65604 0 0.0254
7:21 am 07:21 Cloudy 61 16 55 13 83 83 NNE 10 17 30.12 1020 10 16.0934 0 0.0254
7:52 am 07:52 Cloudy 60 15.6 56 13.3 86 86 NNE 10 17 30.1 1019 10 16.0934 0 0.0254
8:52 am 08:52 Cloudy 61 16.1 56 13.3 84 84 NNE 9 15 30.11 1020 10 16.0934 0 0.0254
9:52 am 09:52 Cloudy 62 16.7 56 13.3 80 80 NNE 6 9 30.11 1020 10 16.0934 0 0
10:52 am 10:52 Cloudy 64 17.8 57 13.9 78 78 ENE 3 6 30.09 1019 10 16.0934 0 0
11:52 am 11:52 Cloudy 65 18.3 58 14.4 78 78 N 7 11 30.09 1019 10 16.0934 0 0
12:52 pm 12:52 Cloudy 67 19.4 59 15 76 76 NNE 3 6 30.07 1018 10 16.0934 0 0
1:32 pm 13:32 Cloudy 68 20 61 16 78 78 E 3 6 30.03 1017 10 16.0934 0 0
1:52 pm 13:52 Cloudy 69 20.6 60 15.6 73 73 Calm 30.04 1017 10 16.0934 0 0
2:52 pm 14:52 Cloudy 72 22.2 61 16.1 68 68 NE 3 6 30.02 1017 10 16.0934 0 0
3:22 pm 15:22 Mostly Cloudy 73 23 61 16 65 65 N 6 9 30 1016 10 16.0934 0 0
3:39 pm 15:39 Mostly Cloudy 73 23 61 16 65 65 Calm 30 1016 10 16.0934 0 0
3:52 pm 15:52 Mostly Cloudy 73 22.8 62 16.7 69 69 NNW 5 7 30 1016 10 16.0934 0 0
4:52 pm 16:52 Cloudy 73 22.8 61 16.1 66 66 Calm 29.98 1015 10 16.0934 0 0
5:52 pm 17:52 Cloudy 74 23.3 62 16.7 67 67 Calm 29.97 1015 10 16.0934 0 0
6:52 pm 18:52 Cloudy 73 22.8 62 16.7 69 69 Calm 29.95 1014 10 16.0934 0 0
7:52 pm 19:52 Cloudy 73 22.8 61 16.1 66 66 Calm 29.95 1014 10 16.0934 0 0
8:27 pm 20:27 Mostly Cloudy 72 22 61 16 69 69 SSE 3 6 29.94 1014 10 16.0934 0 0
8:52 pm 20:52 Mostly Cloudy 71 21.7 62 16.7 73 73 SSW 7 11 29.94 1014 10 16.0934 0 0
9:52 pm 21:52 Cloudy 70 21.1 62 16.7 76 76 WSW 3 6 29.95 1014 10 16.0934 0 0
10:11 pm 22:11 Cloudy 70 21 63 17 78 78 SW 5 7 29.94 1014 10 16.0934 0 0
10:52 pm 22:52 Cloudy 70 21.1 62 16.7 76 76 W 3 6 29.94 1014 10 16.0934 0 0
11:52 pm 23:52 Mostly Cloudy 69 20.6 62 16.7 78 78 Calm 29.93 1014 10 16.0934 0 0

Powered by AerisWeather